Weather History for Middleton, WI

Change the Weather History Date:

Tuesday, March 26, 2013

  Actual Average (KMSN) Record (KMSN)
Temperature  
Mean Temperature 35 °F 38 °F  
Max Temperature 40 °F 48 °F 79 °F (2007)
Min Temperature 30 °F 28 °F -9 °F (1960)
Degree Days  
Heating Degree Days 30 27  
Month to date heating degree days 833  
Since 1 July heating degree days 6319  
Cooling Degree Days 0 0  
Month to date cooling degree days 0  
Year to date cooling degree days 0  
Moisture  
Dew Point 23 °F    
Average Humidity 63    
Maximum Humidity 72    
Minimum Humidity 56    
Precipitation  
Precipitation 0.00 in 0.09 in 1.12 in (1928)
Month to date precipitation 1.75  
Year to date precipitation 4.43  
Snow  
Snow 0.00 in 0.10 in 5.00 in (1928)
Month to date snowfall 6.1  
Since 1 July snowfall 47.2  
Snow Depth -    
Sea Level Pressure  
Sea Level Pressure 30.19 in    
Wind  
Wind Speed 8 mph (NW)    
Max Wind Speed 13 mph    
Max Gust Speed -    
Visibility 10 miles    
Events      
T = Trace of Precipitation, MM = Missing Value Source: NWS Daily Summary

Daily Weather History Graph

Daily Weather History Graph

Search for Another Location

Airport:

Trip Planner

Search our weather history database for the weather conditions in past years. The results will help you decide how hot, cold, wet, or windy it might be!

Date:

Astronomy

Mar. 26, 2013 Rise Set
Actual Time 6:50 AM CDT 7:17 PM CDT
Civil Twilight 6:21 AM CDT 7:46 PM CDT
Nautical Twilight 5:48 AM CDT 8:20 PM CDT
Astronomical Twilight 5:13 AM CDT 8:54 PM CDT
Moon 6:55 PM CDT (3/26) 6:07 AM CDT (3/26)
Length of Visible Light 13h 24m
Length of Day
12h 27m
Waxing Gibbous, 99% of the Moon is Illuminated
Mar 26
Waxing Gibbous
Mar 27
Full
Apr 2
Last Quarter
Apr 10
New
Apr 18
First Quarter

Hourly Weather History & Observations

Time (CDT) Temp. Windchill Dew Point Humidity Pressure Visibility Wind Dir Wind Speed Gust Speed Precip Events Conditions
12:15 AM 33.8 °F 25.3 °F 22.8 °F 64% 30.10 in 10.0 mi NNW 11.5 mph - N/A   Overcast
12:35 AM 33.6 °F 24.6 °F 22.8 °F 65% 30.10 in 10.0 mi NNW 12.7 mph - N/A   Overcast
12:55 AM 33.3 °F 24.1 °F 23.0 °F 66% 30.10 in 10.0 mi NNW 12.7 mph - N/A   Overcast
1:15 AM 33.1 °F 24.9 °F 23.0 °F 66% 30.10 in 10.0 mi NNW 10.4 mph - N/A   Overcast
1:35 AM 32.9 °F 24.7 °F 22.8 °F 66% 30.11 in 10.0 mi NNW 10.4 mph - N/A   Overcast
1:55 AM 32.9 °F 24.7 °F 22.5 °F 65% 30.11 in 10.0 mi NNW 10.4 mph - N/A   Overcast
2:15 AM 32.5 °F 25.5 °F 22.8 °F 67% 30.11 in 10.0 mi NNW 8.1 mph - N/A   Overcast
2:35 AM 32.2 °F 24.4 °F 22.8 °F 68% 30.12 in 10.0 mi NNW 9.2 mph - N/A   Overcast
2:55 AM 32.0 °F 25.6 °F 22.8 °F 69% 30.12 in 10.0 mi NW 6.9 mph - N/A   Overcast
3:15 AM 32.0 °F 26.4 °F 23.0 °F 69% 30.12 in 10.0 mi NW 5.8 mph - N/A   Overcast
3:35 AM 32.0 °F 26.4 °F 22.8 °F 69% 30.12 in 10.0 mi NW 5.8 mph - N/A   Overcast
3:55 AM 31.1 °F 25.4 °F 22.6 °F 71% 30.12 in 10.0 mi NW 5.8 mph - N/A   Overcast
4:15 AM 30.9 °F 25.2 °F 22.3 °F 70% 30.13 in 10.0 mi NW 5.8 mph - N/A   Overcast
4:35 AM 31.1 °F 26.4 °F 22.8 °F 71% 30.13 in 10.0 mi NW 4.6 mph - N/A   Overcast
4:55 AM 31.1 °F 24.5 °F 23.0 °F 72% 30.13 in 10.0 mi NW 6.9 mph - N/A   Overcast
5:15 AM 31.5 °F 26.8 °F 22.8 °F 70% 30.13 in 10.0 mi NW 4.6 mph - N/A   Overcast
5:35 AM 31.5 °F 23.5 °F 22.8 °F 70% 30.14 in 10.0 mi NNW 9.2 mph - N/A   Overcast
5:55 AM 31.5 °F 26.8 °F 23.2 °F 71% 30.15 in 10.0 mi NW 4.6 mph - N/A   Overcast
6:15 AM 31.3 °F 25.6 °F 23.4 °F 72% 30.16 in 10.0 mi NW 5.8 mph - N/A   Overcast
6:35 AM 31.3 °F 24.7 °F 23.2 °F 72% 30.16 in 10.0 mi WNW 6.9 mph - N/A   Overcast
6:55 AM 31.8 °F 23.3 °F 20.8 °F 64% 30.16 in 10.0 mi WNW 10.4 mph - N/A   Overcast
7:15 AM 31.5 °F 24.2 °F 21.7 °F 67% 30.17 in 10.0 mi NW 8.1 mph - N/A   Overcast
7:35 AM 31.5 °F 23.5 °F 21.6 °F 67% 30.18 in 10.0 mi NNW 9.2 mph - N/A   Overcast
7:55 AM 31.6 °F 25.1 °F 21.9 °F 67% 30.18 in 10.0 mi NW 6.9 mph - N/A   Overcast
8:15 AM 31.8 °F 25.4 °F 21.6 °F 66% 30.19 in 10.0 mi NW 6.9 mph - N/A   Overcast
8:35 AM 32.0 °F 24.2 °F 21.7 °F 66% 30.19 in 10.0 mi NW 9.2 mph - N/A   Overcast
8:55 AM 32.0 °F 24.2 °F 21.4 °F 65% 30.19 in 10.0 mi NW 9.2 mph - N/A   Overcast
9:15 AM 32.9 °F 25.3 °F 21.2 °F 62% 30.19 in 10.0 mi WNW 9.2 mph - N/A   Overcast
9:35 AM 33.4 °F 24.8 °F 20.8 °F 60% 30.20 in 10.0 mi WNW 11.5 mph - N/A   Overcast
9:55 AM 33.8 °F 27.7 °F 21.4 °F 60% 30.20 in 10.0 mi NNW 6.9 mph - N/A   Overcast
10:15 AM 34.2 °F 27.5 °F 21.9 °F 61% 30.21 in 10.0 mi North 8.1 mph - N/A   Overcast
10:35 AM 34.7 °F 29.6 °F 21.4 °F 58% 30.21 in 10.0 mi NW 5.8 mph - N/A   Overcast
10:55 AM 35.1 °F 29.3 °F 21.7 °F 58% 30.21 in 10.0 mi NW 6.9 mph - N/A   Overcast
11:15 AM 35.6 °F 30.7 °F 22.1 °F 58% 30.21 in 10.0 mi NW 5.8 mph - N/A   Overcast
11:35 AM 36.1 °F 29.3 °F 22.8 °F 58% 30.21 in 10.0 mi NNW 9.2 mph - N/A   Overcast
11:55 AM 36.9 °F 30.1 °F 23.2 °F 58% 30.21 in 10.0 mi NNW 9.2 mph - N/A   Overcast
12:15 PM 37.2 °F 30.0 °F 23.9 °F 59% 30.21 in 10.0 mi NW 10.4 mph - N/A   Overcast
12:35 PM 37.4 °F 30.8 °F 24.8 °F 60% 30.20 in 10.0 mi NW 9.2 mph - N/A   Overcast
12:55 PM 37.9 °F 30.9 °F 25.0 °F 60% 30.20 in 10.0 mi NNW 10.4 mph - N/A   Overcast
1:15 PM 38.3 °F 31.4 °F 25.3 °F 60% 30.20 in 10.0 mi NW 10.4 mph - N/A   Overcast
1:35 PM 38.5 °F 33.4 °F 25.5 °F 60% 30.20 in 10.0 mi NW 6.9 mph - N/A   Overcast
1:55 PM 38.7 °F 32.4 °F 26.8 °F 62% 30.20 in 10.0 mi NW 9.2 mph - N/A   Overcast
2:15 PM 39.0 °F 33.4 °F 26.4 °F 61% 30.20 in 10.0 mi NW 8.1 mph - N/A   Overcast
2:35 PM 40.1 °F 34.1 °F 26.1 °F 57% 30.20 in 10.0 mi NW 9.2 mph - N/A   Overcast
2:55 PM 39.4 °F 33.2 °F 26.1 °F 59% 30.20 in 10.0 mi NNW 9.2 mph - N/A   Overcast
3:15 PM 39.7 °F 33.7 °F 25.0 °F 56% 30.20 in 10.0 mi NW 9.2 mph - N/A   Overcast
3:35 PM 39.7 °F 33.2 °F 26.2 °F 59% 30.20 in 10.0 mi NNW 10.4 mph - N/A   Overcast
3:55 PM 39.6 °F 34.7 °F 25.3 °F 57% 30.20 in 10.0 mi NNW 6.9 mph - N/A   Overcast
4:15 PM 38.8 °F 33.8 °F 25.2 °F 58% 30.20 in 10.0 mi NNW 6.9 mph - N/A   Overcast
4:35 PM 38.7 °F 32.9 °F 25.2 °F 58% 30.20 in 10.0 mi NW 8.1 mph - N/A   Overcast
4:55 PM 38.5 °F 34.1 °F 24.4 °F 57% 30.20 in 10.0 mi NW 5.8 mph - N/A   Overcast
5:15 PM 38.3 °F 31.9 °F 24.4 °F 57% 30.20 in 10.0 mi NW 9.2 mph - N/A   Overcast
5:35 PM 38.3 °F 33.2 °F 24.4 °F 57% 30.20 in 10.0 mi NW 6.9 mph - N/A   Overcast
5:55 PM 37.9 °F 32.7 °F 24.3 °F 58% 30.21 in 10.0 mi NW 6.9 mph - N/A   Overcast
6:15 PM 37.4 °F 31.4 °F 24.1 °F 59% 30.21 in 10.0 mi NW 8.1 mph - N/A   Overcast
6:35 PM 37.6 °F 32.3 °F 23.0 °F 56% 30.22 in 10.0 mi NW 6.9 mph - N/A   Overcast
6:55 PM 37.0 °F 32.4 °F 23.9 °F 59% 30.22 in 10.0 mi NW 5.8 mph - N/A   Overcast
7:15 PM 36.7 °F 31.2 °F 23.9 °F 60% 30.22 in 10.0 mi WNW 6.9 mph - N/A   Overcast
7:35 PM 36.5 °F 32.7 °F 24.1 °F 61% 30.22 in 10.0 mi NW 4.6 mph - N/A   Overcast
7:55 PM 36.7 °F 32.0 °F 22.8 °F 57% 30.23 in 10.0 mi WNW 5.8 mph - N/A   Overcast
8:15 PM 36.5 °F 33.9 °F 23.2 °F 59% 30.23 in 10.0 mi WNW 3.5 mph - N/A   Overcast
8:35 PM 36.0 °F - 23.9 °F 62% 30.23 in 10.0 mi Calm Calm - N/A   Overcast
8:55 PM 35.8 °F - 23.5 °F 61% 30.23 in 10.0 mi Calm Calm - N/A   Overcast
9:15 PM 36.0 °F - 22.8 °F 59% 30.24 in 10.0 mi Calm Calm - N/A   Overcast
9:35 PM 35.6 °F 32.8 °F 23.2 °F 61% 30.24 in 10.0 mi NW 3.5 mph - N/A   Overcast
9:55 PM 35.4 °F 31.5 °F 23.4 °F 62% 30.24 in 10.0 mi WNW 4.6 mph - N/A   Overcast
10:15 PM 34.5 °F 30.4 °F 24.8 °F 68% 30.24 in 10.0 mi West 4.6 mph - N/A   Overcast
10:35 PM 34.3 °F 29.2 °F 25.2 °F 69% 30.24 in 10.0 mi West 5.8 mph - N/A   Overcast
10:55 PM 34.9 °F 29.9 °F 23.2 °F 62% 30.25 in 10.0 mi West 5.8 mph - N/A   Overcast
11:15 PM 34.7 °F 30.6 °F 23.5 °F 64% 30.25 in 10.0 mi West 4.6 mph - N/A   Overcast
11:35 PM 34.5 °F - 23.9 °F 65% 30.25 in 10.0 mi Calm Calm - N/A   Overcast
11:55 PM 34.2 °F 31.2 °F 23.4 °F 65% 30.25 in 10.0 mi WSW 3.5 mph - N/A   Overcast